AirNav   Everest Fuels
 
 1304 users online  

35MN Wipline Airport
Inver Grove Heights, Minnesota, USA

GOING TO INVER GROVE HEIGHTS?


FAA INFORMATION EFFECTIVE 16 JUNE 2022

Location

FAA Identifier: 35MN
Lat/Long: 44-48-55.8790N 093-00-48.7690W
44-48.931317N 093-00.812817W
44.8155219,-93.0135469
(estimated)
Elevation: 687 ft. / 209 m (estimated)
Variation: 03E (1985)
From city: 2 miles SE of INVER GROVE HEIGHTS, MN
Time zone: UTC -5 (UTC -6 during Standard Time)
Zip code: 55077

Airport Operations

Airport use: Private use. Permission required prior to landing
Activation date: 02/1978
Control tower: no
ARTCC: MINNEAPOLIS CENTER
FSS: PRINCETON FLIGHT SERVICE STATION
Attendance: UNATNDD
Wind indicator: yes
Segmented circle: no

Airport Communications

WX AWOS-3 at SGS (2.6 nm N): 119.425 (651-457-8120)
WX ASOS at STP (7 nm N): 118.35 (651-312-8888)
WX ASOS at MSP (10 nm NW): PHONE 612-713-4174
WX AWOS-3 at 21D (13 nm NE): 120.075 (651-779-5949)
WX AWOS-3 at LVN (15 nm SW): 118.0 (952-469-5850)
WX ASOS at FCM (19 nm W): PHONE 952-941-4156

Airport Services

Runway Information

Runway 3/21

Dimensions: 2300 x 150 ft. / 701 x 46 m
Surface: turf
RUNWAY 3  RUNWAY 21
Traffic pattern: leftleft

Airport Ownership and Management from official FAA records

Ownership: Privately-owned
Owner: ROBERT WIPLINGER
9100 RIVER ROAD
INVER GROVE HTS, MN 55075
Phone (612) 867-6160
Manager: ROBERT WIPLINGER
9100 RIVER ROAD
INVER GROVE HTS, MN 55075
Phone (612) 867-6160
CELL: 612-867-6160

Airport Operational Statistics

Aircraft based on the field: 1
Single engine airplanes: 1
    

Additional Remarks

FOR CD CTC MINNEAPOLIS ARTCC AT 651-463-5588.

Instrument Procedures

There are no published instrument procedures at 35MN.

Some nearby airports with instrument procedures:

KSGS - South St Paul Municipal Airport-Richard E Fleming Field (3 nm N)
KSTP - St Paul Downtown Airport Holman Field (7 nm N)
KMSP - Minneapolis-St Paul International/Wold-Chamberlain Airport (10 nm NW)
21D - Lake Elmo Airport (13 nm NE)
KLVN - Airlake Airport (15 nm SW)
KFCM - Flying Cloud Airport (19 nm W)
 
Loc | Ops | Rwys | IFR | FBO | Links
Com | Nav | Svcs | Stats | Notes
Area around 35MN (Wipline Airport)
 
Road maps at: MapQuest Bing Google
 
Aerial photo
No photo
 
Sectional chart

 
Airport distance calculator
Flying to Wipline Airport? Find the distance to fly.

From to 35MN

Sunrise and sunset
Times for 02-Jul-2022
 Local
(UTC-5)
 Zulu
(UTC)
Morning civil twilight04:5509:55
Sunrise05:3110:31
Sunset21:0102:01
Evening civil twilight21:3802:38

Current date and time
Zulu (UTC)  02-Jul-2022 21:55:07
Local (UTC-5)  02-Jul-2022 16:55:07
 
METAR
KSGS 
6nm W 
022135Z AUTO 00000KT 10SM CLR 23/15 A3005 RMK AO2 T02310145
KSTP 
7nm N 
022053Z AUTO VRB04KT 10SM CLR 23/16 A3006 RMK AO2 SLP174 60000 T02330161 58012
KMSP 
10nm NW 
022053Z VRB03KT 10SM FEW020 FEW080 SCT110 SCT200 23/15 A3005 RMK AO2 SLP174 60002 T02330150 58013
K21D 
13nm NE 
022135Z AUTO 01005KT 10SM SCT028 23/14 A3007 RMK AO2
KLVN 
15nm SW 
022135Z AUTO 00000KT 10SM SCT110 22/14 A3006 RMK AO2
KFCM 
19nm W 
022053Z 00000KT 10SM CLR 23/16 A3005 RMK AO2 SLP172 60003 T02330156 58014
TAF
KMSP 
10nm NW 
021734Z 0218/0324 VRB05KT P6SM -SHRA SCT050 OVC080 FM021930 VRB04KT P6SM SCT070 PROB30 0303/0309 -TSRA BKN060CB FM031400 17008KT P6SM FEW070 SCT200
NOTAMs
Click for the latest NOTAMs
NOTAMs are issued by the DoD/FAA and will open in a separate window not controlled by AirNav.

 

 
 

Would you like to see your business listed on this page?

 If your business provides an interesting product or service to pilots, flight crews, aircraft, or users of the Wipline Airport, you should consider listing it here.  To start the listing process, click on the button below
 
Add a business
 

Other Pages about Wipline Airport

Update a link
 
Copyright © AirNav, LLC. All rights reserved. Privacy Policy  Contact